Location: Bretagne
(43.8474°N, 0.4650°W)
Time: 01:50:08
(UTC+00:00)

Tiangong - Visible Passes

Search period start: 13 March 2026 00:00
Search period end: 23 March 2026 00:00
Orbit: 381 x 390 km, 41.5° (Epoch: 12 March)

Date Brightness Start Highest point End Pass type
(mag) Time Alt. Az. Time Alt. Az. Time Alt. Az.
13 Mar 0.3 04:21:56 16° SSE 04:21:56 16° SSE 04:23:54 10° ESE visible
14 Mar -0.9 04:57:30 23° SSW 04:58:49 33° SSE 05:01:45 10° E visible
15 Mar 0.4 04:00:44 18° ESE 04:00:44 18° ESE 04:02:03 10° ESE visible
15 Mar -1.6 05:32:57 11° WSW 05:35:56 53° S 05:39:03 10° E visible
16 Mar -1.6 04:36:06 43° S 04:36:22 44° S 04:39:26 10° E visible
17 Mar 1.0 03:39:12 14° E 03:39:12 14° E 03:39:44 10° E visible
17 Mar -1.8 05:11:24 20° WSW 05:13:25 56° S 05:16:33 10° ESE visible
18 Mar -1.2 04:14:26 42° SE 04:14:26 42° SE 04:16:52 10° E visible
19 Mar -1.8 04:49:39 34° WSW 04:50:42 52° S 04:53:48 10° ESE visible
20 Mar 0.0 03:52:38 23° ESE 03:52:38 23° ESE 03:54:03 10° ESE visible
20 Mar -1.1 05:24:50 11° W 05:27:32 33° SSW 05:30:26 10° SE visible
21 Mar -1.6 04:27:51 43° S 04:27:51 43° S 04:30:48 10° ESE visible
22 Mar 1.1 03:30:53 11° ESE 03:30:53 11° ESE 03:31:00 10° ESE visible
22 Mar -0.7 05:03:05 18° WSW 05:04:25 23° SSW 05:07:00 10° SSE visible
